TimeCDT,TemperatureF,Dew PointF,Humidity,Sea Level PressureIn,VisibilityMPH,Wind Direction,Wind SpeedMPH,Gust SpeedMPH,PrecipitationIn,Events,Conditions,WindDirDegrees,DateUTC
12:15 AM,43.0,37.6,81,29.99,10.0,Calm,Calm,-,N/A,,Clear,0,2012-10-15 05:15:00
12:35 AM,42.8,37.6,82,29.99,10.0,Calm,Calm,-,N/A,,Clear,0,2012-10-15 05:35:00
12:55 AM,42.8,37.0,80,29.98,10.0,Calm,Calm,-,N/A,,Mostly Cloudy,0,2012-10-15 05:55:00
1:15 AM,43.0,37.9,82,29.98,10.0,Calm,Calm,-,N/A,,Overcast,0,2012-10-15 06:15:00
1:35 AM,43.5,38.3,82,29.98,10.0,Calm,Calm,-,N/A,,Overcast,0,2012-10-15 06:35:00
1:55 AM,43.2,38.3,83,29.98,10.0,NE,3.5,-,N/A,,Overcast,40,2012-10-15 06:55:00
2:15 AM,40.8,37.4,88,29.98,10.0,Calm,Calm,-,N/A,,Scattered Clouds,0,2012-10-15 07:15:00
2:35 AM,42.8,38.5,85,29.98,10.0,Calm,Calm,-,N/A,,Scattered Clouds,0,2012-10-15 07:35:00
2:55 AM,44.4,38.8,81,29.97,10.0,Calm,Calm,-,N/A,,Clear,0,2012-10-15 07:55:00
3:15 AM,42.3,37.0,82,29.97,10.0,Calm,Calm,-,N/A,,Clear,0,2012-10-15 08:15:00
3:35 AM,40.6,36.1,84,29.97,10.0,North,3.5,-,N/A,,Clear,360,2012-10-15 08:35:00
3:55 AM,38.3,35.2,89,29.97,10.0,NNW,3.5,-,N/A,,Clear,330,2012-10-15 08:55:00
4:15 AM,39.7,36.0,86,29.97,10.0,Calm,Calm,-,N/A,,Clear,0,2012-10-15 09:15:00
4:35 AM,40.6,37.0,87,29.97,10.0,West,4.6,-,N/A,,Clear,270,2012-10-15 09:35:00
4:55 AM,41.0,37.9,89,29.97,10.0,Calm,Calm,-,N/A,,Clear,0,2012-10-15 09:55:00
5:15 AM,38.7,35.4,88,29.97,10.0,South,4.6,-,N/A,,Clear,190,2012-10-15 10:15:00
5:35 AM,39.2,36.7,91,29.96,10.0,South,5.8,-,N/A,,Clear,170,2012-10-15 10:35:00
5:55 AM,38.3,35.2,89,29.96,10.0,SSE,3.5,-,N/A,,Clear,160,2012-10-15 10:55:00
6:15 AM,39.6,36.1,88,29.96,10.0,South,4.6,-,N/A,,Clear,180,2012-10-15 11:15:00
6:35 AM,37.9,34.9,89,29.96,10.0,Calm,Calm,-,N/A,,Clear,0,2012-10-15 11:35:00
6:55 AM,37.8,34.9,89,29.96,10.0,Calm,Calm,-,N/A,,Clear,0,2012-10-15 11:55:00
7:15 AM,38.8,35.6,88,29.97,10.0,Calm,Calm,-,N/A,,Clear,0,2012-10-15 12:15:00
7:35 AM,39.6,36.5,89,29.97,10.0,Calm,Calm,-,N/A,,Clear,0,2012-10-15 12:35:00
7:55 AM,39.2,36.1,89,29.97,10.0,Calm,Calm,-,N/A,,Clear,0,2012-10-15 12:55:00
8:15 AM,40.3,37.0,88,29.97,10.0,Calm,Calm,-,N/A,,Clear,0,2012-10-15 13:15:00
8:35 AM,42.4,38.7,86,29.97,10.0,Calm,Calm,-,N/A,,Clear,0,2012-10-15 13:35:00
8:55 AM,44.6,40.5,85,29.97,10.0,Calm,Calm,-,N/A,,Clear,0,2012-10-15 13:55:00
9:15 AM,46.6,41.5,83,29.98,10.0,Calm,Calm,-,N/A,,Clear,0,2012-10-15 14:15:00
9:35 AM,49.6,42.1,75,29.98,10.0,SSE,4.6,-,N/A,,Clear,160,2012-10-15 14:35:00
9:55 AM,51.8,42.3,70,29.98,10.0,SSE,5.8,-,N/A,,Clear,150,2012-10-15 14:55:00
10:15 AM,53.6,42.8,67,29.97,10.0,SE,5.8,-,N/A,,Clear,140,2012-10-15 15:15:00
10:55 AM,57.7,43.3,59,29.97,10.0,SSE,6.9,-,N/A,,Clear,150,2012-10-15 15:55:00
11:15 AM,59.9,43.5,55,29.96,10.0,South,6.9,-,N/A,,Clear,170,2012-10-15 16:15:00
11:35 AM,62.4,43.5,50,29.95,10.0,SSE,8.1,-,N/A,,Clear,150,2012-10-15 16:35:00
11:55 AM,64.2,42.8,46,29.95,10.0,SSE,10.4,-,N/A,,Clear,160,2012-10-15 16:55:00
12:15 PM,66.7,40.8,39,29.94,10.0,SSE,11.5,-,N/A,,Clear,150,2012-10-15 17:15:00
12:35 PM,68.4,38.3,33,29.93,10.0,South,6.9,-,N/A,,Clear,170,2012-10-15 17:35:00
12:55 PM,70.0,37.8,31,29.92,10.0,SSE,8.1,-,N/A,,Clear,160,2012-10-15 17:55:00
1:15 PM,71.8,37.9,29,29.92,10.0,South,5.8,-,N/A,,Clear,170,2012-10-15 18:15:00
1:35 PM,71.6,38.1,30,29.91,10.0,SSE,6.9,-,N/A,,Clear,160,2012-10-15 18:35:00
1:55 PM,72.3,37.8,28,29.89,10.0,South,10.4,-,N/A,,Clear,170,2012-10-15 18:55:00
2:15 PM,73.4,38.5,28,29.88,10.0,South,9.2,-,N/A,,Clear,170,2012-10-15 19:15:00
2:35 PM,74.5,38.8,28,29.86,10.0,South,8.1,-,N/A,,Clear,180,2012-10-15 19:35:00
2:55 PM,74.3,39.2,28,29.85,10.0,South,15.0,18.4,N/A,,Clear,180,2012-10-15 19:55:00
3:15 PM,75.9,38.8,26,29.85,10.0,South,11.5,-,N/A,,Clear,190,2012-10-15 20:15:00
3:35 PM,75.9,39.6,27,29.85,10.0,South,13.8,20.7,N/A,,Clear,170,2012-10-15 20:35:00
3:55 PM,74.8,39.7,28,29.84,10.0,South,15.0,-,N/A,,Clear,180,2012-10-15 20:55:00
4:15 PM,75.6,39.9,28,29.83,10.0,South,11.5,-,N/A,,Clear,170,2012-10-15 21:15:00
4:35 PM,75.6,40.1,28,29.83,10.0,South,11.5,-,N/A,,Clear,180,2012-10-15 21:35:00
4:55 PM,75.2,40.5,29,29.82,10.0,SSE,11.5,20.7,N/A,,Clear,160,2012-10-15 21:55:00
5:15 PM,74.8,41.4,30,29.81,10.0,SSE,11.5,-,N/A,,Clear,150,2012-10-15 22:15:00
5:35 PM,74.8,42.1,31,29.80,10.0,SSE,12.7,17.3,N/A,,Clear,150,2012-10-15 22:35:00
5:55 PM,73.9,43.0,33,29.80,10.0,SSE,11.5,-,N/A,,Clear,150,2012-10-15 22:55:00
6:15 PM,71.8,44.2,37,29.79,10.0,SE,10.4,-,N/A,,Clear,140,2012-10-15 23:15:00
6:35 PM,67.8,45.7,45,29.80,10.0,SE,9.2,-,N/A,,Clear,140,2012-10-15 23:35:00
6:55 PM,64.4,46.0,51,29.80,10.0,SE,9.2,-,N/A,,Clear,140,2012-10-15 23:55:00
7:15 PM,61.5,45.9,56,29.79,10.0,SE,8.1,-,N/A,,Clear,130,2012-10-16 00:15:00
7:35 PM,61.0,46.8,59,29.79,10.0,SE,9.2,-,N/A,,Clear,140,2012-10-16 00:35:00
7:55 PM,61.0,47.3,61,29.79,10.0,SE,9.2,-,N/A,,Clear,130,2012-10-16 00:55:00
8:15 PM,60.8,47.3,61,29.79,10.0,SE,8.1,-,N/A,,Clear,140,2012-10-16 01:15:00
8:35 PM,61.2,47.3,60,29.79,10.0,SSE,5.8,-,N/A,,Clear,150,2012-10-16 01:35:00
8:55 PM,60.3,47.5,63,29.79,10.0,SSE,6.9,-,N/A,,Clear,150,2012-10-16 01:55:00
9:15 PM,59.0,47.3,65,29.78,10.0,SE,9.2,-,N/A,,Clear,140,2012-10-16 02:15:00
9:35 PM,61.0,46.8,59,29.77,10.0,SSE,9.2,-,N/A,,Clear,150,2012-10-16 02:35:00
9:55 PM,58.3,46.9,66,29.77,10.0,SE,6.9,-,N/A,,Clear,140,2012-10-16 02:55:00
10:15 PM,56.8,46.9,69,29.77,10.0,SSE,9.2,-,N/A,,Clear,150,2012-10-16 03:15:00
10:35 PM,58.5,47.1,66,29.77,10.0,SSE,8.1,-,N/A,,Clear,150,2012-10-16 03:35:00
10:55 PM,57.2,47.3,69,29.76,10.0,SE,8.1,-,N/A,,Clear,140,2012-10-16 03:55:00
11:15 PM,55.8,46.8,72,29.76,10.0,SSE,5.8,-,N/A,,Clear,150,2012-10-16 04:15:00
11:35 PM,55.0,46.4,73,29.75,10.0,SSE,6.9,-,N/A,,Clear,150,2012-10-16 04:35:00
11:55 PM,54.1,46.0,74,29.74,10.0,SSE,5.8,-,N/A,,Clear,150,2012-10-16 04:55:00